Regional Weather Roundup
Issued by NWS Upton, NY

Current Version | Previous Version | Text Only | Print | Product List | Glossary On
Versions: 1 2 3 4 5 6 7 8 9 10 11 12 13 14 15 16 17 18 19 20 21 22 23 24 25 26 27
000
ASUS41 KOKX 181609
RWROKX

REGIONAL WEATHER ROUNDUP
NATIONAL WEATHER SERVICE NEW YORK NY
1200 PM EDT FRI AUG 18 2017

NOTE: "FAIR" INDICATES FEW OR NO CLOUDS BELOW 12,000 FEET WITH NO
SIGNIFICANT WEATHER AND/OR OBSTRUCTIONS TO VISIBILITY.

NYZ071-072-176-178-NJZ106-104-181700-
NEW YORK CITY METRO AREA

CITY           SKY/WX    TMP DP  RH WIND       PRES   REMARKS
Central Park   CLOUDY    77  76  96 VRB5      29.89F FOG
Bronx Bot Gard   N/A     75  73  94 CALM      29.89S
LaGuardia APRT CLOUDY    79  77  94 S8        29.86F
Kennedy INTL   CLOUDY    78  78 100 S9        29.88F
Breezy Point     N/A     77 N/A N/A S5          N/A
Newark/Liberty CLOUDY    78  76  93 S7        29.86F
Teterboro      CLOUDY    77  74  90 S3        29.85F FOG
$$

NYZ177-179-078>081-181700-
LONG ISLAND NEW YORK

CITY           SKY/WX    TMP DP  RH WIND       PRES   REMARKS
Jones Beach      N/A     77 N/A N/A SW6G13      N/A
Matinecock PT    N/A     75 N/A N/A SW7         N/A
Farmingdale    CLOUDY    79  76  90 SW17      29.88F
MacArthur/ISP  CLOUDY    78  76  93 SW14G22   29.88S
Shirley        CLOUDY    77  76  96 S14       29.90S FOG
Mt Sinai Harb    N/A    N/A N/A N/A SW6G12      N/A
Westhampton    TSTM      74  72  93 S15G22    29.90F FOG
East Hampton   LGT RAIN  72  71  96 S8        29.92F
Montauk          N/A     73  72  96 VRB6      29.95R
$$

NYZ052-065-067-181700-
HUDSON VALLEY

CITY           SKY/WX    TMP DP  RH WIND       PRES   REMARKS
White Plains   DRIZZLE   76  74  93 VRB5      29.87F FOG
Larchmont Harb   N/A     73 N/A N/A S2          N/A
Croton On Huds   N/A     75 N/A N/A S6          N/A
Newburgh       NOT AVBL
Montgomery     CLOUDY    77  72  84 S6        29.86
Poughkeepsie   CLOUDY    76  71  85 S6        29.84F
Albany         LGT RAIN  74  70  87 S12G20    29.83S FOG
$$

NJZ001-105-106-008-010-013-015-019>022-104-181700-
NEW JERSEY

CITY           SKY/WX    TMP DP  RH WIND       PRES   REMARKS
Newark/Liberty CLOUDY    78  76  93 S7        29.86F
Teterboro      CLOUDY    77  74  90 S3        29.85F FOG
Caldwell       CLOUDY    76  75  97 VRB3      29.87F
Somerville     CLOUDY    79  76  90 S3        29.84F
Linden         CLOUDY    79  76  90 SW5       29.86F
Perth Amboy      N/A     77 N/A N/A S9          N/A
Sussex         CLOUDY    77  74  90 CALM      29.86F
Andover          N/A     78  73  84 VRB6      29.87F
Trenton        CLOUDY    79  77  94 S7        29.86F FOG
Millville      CLOUDY    84  80  88 VRB6      29.87F HX  97
Atlantic City  CLOUDY    83  78  85 S8        29.88S HX  93
Wrightstown    LGT RAIN  79  77  94 S7        29.84F
Toms River     CLOUDY    78  77  96 S7        29.89F
Belmar         CLOUDY    76  75  97 SE5       29.89F FOG
$$

PAZ047>061-062-071-181700-
EASTERN PENNSYLVANIA

CITY           SKY/WX    TMP DP  RH WIND       PRES   REMARKS
Philadelphia   CLOUDY    81  75  82 SW12      29.86F
Allentown      CLOUDY    81  73  76 S8        29.86F
Scranton       CLOUDY    81  73  76 SW6       29.85
$$

CTZ002-004>006-009-010-012-RIZ004-006-007-MAZ004-011-015-181700-
SOUTHERN NEW ENGLAND
 IN CT

CITY           SKY/WX    TMP DP  RH WIND       PRES   REMARKS
Bradley INTL   CLOUDY    81  70  69 S13G21    29.88F
Hartford       CLOUDY    80  71  74 S10G20    29.87F
Danbury        CLOUDY    76  74  93 S7        29.89F FOG
Wtrbury/Oxford CLOUDY    74  72  93 SE12      29.90
Norwalk Harbor   N/A     73 N/A N/A SE5         N/A
Bridgeport     LGT RAIN  75  74  96 S8        29.88F FOG
Meriden        CLOUDY    78  72  81 S12G21    29.88F
New Haven      LGT RAIN  75  74  96 S10       29.88F FOG
Chester        NOT AVBL
Groton         RAIN      72  70  93 S8        29.92S FOG
Wilimantic     PTSUNNY   79  68  69 S15G22    29.91S

 IN RI

CITY           SKY/WX    TMP DP  RH WIND       PRES   REMARKS
Providence     CLOUDY    78  72  81 S16       29.94S
Block Island   RAIN      72  71  97 S14       29.95R FOG
Westerly       CLOUDY    73  71  93 S10       29.94S FOG
 IN MA

CITY           SKY/WX    TMP DP  RH WIND       PRES   REMARKS
Boston         CLOUDY    76  69  79 S13       29.90S
Worcester      PTSUNNY   75  65  70 S12       29.93
Westfield      CLOUDY    76  71  85 S10       29.87F
Provincetown   CLOUDY    75  69  81 S13G21    29.95F
Nantucket      CLOUDY    71  70  96 SE13      29.98F
$$

ANZ330-335-338-340-345-350-353-355-181700-
COASTAL MARINE OBSERVATIONS


STATION/POSITION TIME  SKY/WX   TEMP    WIND        PRES    VSBY  WAVE
                                AIR SEA DIR/SP/G                  HT/PER
                 (UTC)          (F)     (DEG/KT/KT) (MB)    (MI)  (FT/S)
NY HARB ENTRANCE 1450            76 75  200/ 17/ 19 1011.3          4/ 5
GREAT SOUTH BAY  1530            76 78  210/ 16/ 19   N/A
23 SSW MONTAUK P 1450            73 71              1013.5          3/ 4
15 E BARNEGAT LI 1530               76                N/A           4/ 5
HUDSON CANYON    1450            76 75  180/ 16/ 17 1013.3          3/ 4
KINGS POINT      1548            76 74  220/  5/  5 1011.3
EXECUTION ROCKS  NOT AVBL
WESTERN LI SOUND NOT AVBL
CENTRAL LI SOUND NOT AVBL
EASTERN LI SOUND NOT AVBL
ROBBINS REEF     1548                   190/ 11/ 15 1011.8
$$


>>>>>>>>>>>>>>>>>>>>>>>>>>>> KEY <<<<<<<<<<<<<<<<<<<<<<<<<<<
>                                                          <
>     SKY/WX - Sky Condition/Present Weather               <
>     TMP    - Temperature in Fahrenheit                   <
>     DP     - Dew Point in Fahrenheit                     <
>     RH     - Relative Humidity in Percent                <
>     WIND   - Direction (from) and Speed in MPH           <
>     PRES   - Mean Sea Level Pressure (inches of Hg)      <
>     WCI    - Wind Chill Index                            <
>     VSB    - VISIBILITY IN MILES                         <
>     HX     - HEAT INDEX                                  <
>     TC     - TEMPERATURE IN CELSIUS                      <
>     VRB    - VARIABLE WIND DIRECTION                     <
>                                                          <
>>>>>>>>>>>>>>>>>>>>>>>>>>>> KEY <<<<<<<<<<<<<<<<<<<<<<<<<<<




USA.gov is the U.S. government's official web portal to all federal, state and local government web resources and services.